Location: Fort Worth, Tx
(32.7431°N, 97.3695°W)
Time: 11:04:04
(UTC-04:00)

ZACube-1 - Visible Passes

Search period start: 21 March 2023 00:00
Search period end: 31 March 2023 00:00
Orbit: 578 x 654 km, 97.7° (Epoch: 20 March)

Date Brightness Start Highest point End Pass type
(mag) Time Alt. Az. Time Alt. Az. Time Alt. Az.
21 Mar ? 06:27:52 10° N 06:28:16 12° NNW 06:28:16 12° NNW visible
22 Mar ? 06:44:26 10° NNW 06:44:39 11° NNW 06:44:39 11° NNW visible
23 Mar ? 05:23:52 10° NNE 05:23:55 10° NNE 05:23:55 10° NNE visible
24 Mar ? 05:39:43 10° NNE 05:40:16 13° NNE 05:40:16 13° NNE visible
25 Mar ? 05:55:44 10° N 05:56:37 16° N 05:56:37 16° N visible
26 Mar ? 06:11:53 10° N 06:12:57 17° N 06:12:57 17° N visible
27 Mar ? 06:28:11 10° N 06:29:16 16° NNW 06:29:16 16° NNW visible
28 Mar ? 05:08:27 10° NE 05:08:30 10° NE 05:08:30 10° NE visible
28 Mar ? 06:44:44 10° NNW 06:45:35 14° NNW 06:45:35 14° NNW visible
29 Mar ? 05:24:03 10° NNE 05:24:49 15° NNE 05:24:49 15° NNE visible
29 Mar ? 07:01:45 10° NW 07:01:54 10° NW 07:01:54 10° NW visible
30 Mar ? 05:39:51 10° NNE 05:41:06 19° NNE 05:41:06 19° NNE visible
